Погода в Называевске

Погода в Называевске : погода сейчас, прогноз погоды и архив. Всё, что Вы хотите узнать о погоде в Называевске!

Хотите узнать прогноз погоды в Называевске? Тогда Вам сюда: Погода в Называевске

Поиск расширенной информации на нашем сайте:

Другие новости

Новости СМИ2

Главная страница сайта

Новости сайта

03.07.2017

Напоминаем, что на нашем специализированном сайте Метеоцентр.Азия вы можете получить высокодетализированные автоматические прогнозы погоды по пунктам России, СНГ и мира в авиационном формате (включающие направление и скорость ветра, видимость, явления погоды, количество и форму облачности, нижнюю и верхнюю границу облачности).


Погода в Называевске - сегодня

Время (UTC), дата Ветер
(°,м/с) 
Видим.   Явления Облачность Т
(°С)
Тd
(°С)
f(%) Тe
(°С)
Pmin
(гПа)
dP
(гПа)
Po
(мм)
O2
(г/м3)
Тmin Tmax R s Состояние
почвы
18 17.07.17 010 (С) 20000 м  {гроза, ливн. осадки}  9/3 600 м кучево-дожд., средняя, верхняя 
[Cb cap|Ac cuf|Ci sp]
+14.2 +12.2 88 +19  1009.3  0.2  746  283           
21 17.07.17 360 (С) 20000 м    9/0 средняя, верхняя 
[Ac As|Ci sp]
+13.4 +12.2 92 +18  1009.7  0.3  746  284           
00 18.07.17 030 (СВ) 15000 м  в посл. час ливневой дождь  9/6 660 м кучево-дожд., средняя, верхняя 
[Cb cap|Ac cuf|Ci sp]
+13.9 +12.7 92 +19  1010.3  0.6  747  284           
03 18.07.17 030 (СВ) 16000 м    9/8 400 м кучево-дожд., средняя 
[Cb cap|Ac As]
+15.8 +13.9 88 +23  1011.7  1.4  748  282  +13.1    0.5     
06 18.07.17 030 (СВ) 40000 м    8/4 600 м кучево-дожд., средняя, верхняя 
[Cb cap|Ac trans|Ci fib]
+18.5 +13.1 71 +25  1012.3  0.8  748  280           
09 18.07.17 010 (С) 40000 м    6/5 600 м кучево-дожд., верхняя 
[Cb cap|Ci fib]
+22.9 +12.6 52 +28  1011.7  -0.4  748  276           
12 18.07.17 020 (С) 40000 м  {гроза}  8/5 600 м кучево-дожд., верхняя 
[Cb cap|Ci sp]
+24.8 +10.9 42 +27  1011.6  748  274           
15 18.07.17 030 (СВ) 3{11}  9000 м  гроза, ливневой дождь  9/9 600 м кучево-дожд. 
[Cb cap]
+17.7 +15 84 +27  1013.5  1.6  749  280    +25.6     
18 18.07.17 330 (СЗ) 20000 м  {гроза, ливн. осадки}  4/0 верхняя 
[Ci sp]
+15.7 +13.3 86 +22  1013.1  -0.6  749  283           
21 18.07.17 320 (СЗ) 20000 м    3/0 верхняя 
[Ci sp]
+13.5 +11.7 89 +18  1013.2  749  285           
00 19.07.17 310 (СЗ) 4300 м  дымка  8/0 средняя, верхняя 
[Ac lent|Ci fib]
+14.5 +12.8 90 +20  1013.3  0.2  749  284           
03 19.07.17 310 (СЗ) 40000 м    4/0 средняя 
[Ac lent]
+19.7 +15 74 +30  1013  0.1  749  278  +13    0.5     
06 19.07.17 300 (СЗ) 40000 м    8/3 600 м средняя, верхняя 
[Cu med, cong|Ac lent|Ci sp]
+24.6 +12.3 46 +29  1012.6  -0.2  749  274           
12 19.07.17 260 (З) 3{14}  40000 м  {гроза, ливн. осадки}  8/6 600 м кучево-дожд., средняя, верхняя 
[Cb cap|Ac lent|Ci sp]
+20.8 +14.2 66 +28  1011.3  748  277           
15 19.07.17 030 (СВ) 1{18}  40000 м  гроза без осадков{ливн. осадки}  9/9 600 м кучево-дожд. 
[Cb cap]
+16.3 +13.1 81 +24  1012.5  748  282    +27  0.5     
18 19.07.17 250 (З) 20000 м  {гроза, ливн. осадки}  4/3 600 м кучево-дожд., средняя 
[Cb cap|Ac lent]
+13.9 +12.2 89 +18  1012.2  -0.4  748  284           
21 19.07.17 290 (З) 20000 м    3/0 средняя 
[Ac lent]
+12.4 +11.2 92 +17  1011.7  -0.5  748  286           
00 20.07.17 260 (З) 8000 м  дымка  4/0 средняя, верхняя 
[Ac lent|Ci sp]
+12.5 +11.5 94 +16  1012  0.2  748  286           
06 20.07.17 310 (СЗ) 40000 м    8/6 600 м верхняя 
[Cu med, cong|Ci fib]
+24 +12.9 50 +29  1011.5  -0.3  748  275           
09 20.07.17 330 (СЗ) 40000 м    9/6 600 м верхняя 
[Cu med, cong|Ci sp]
+26 +9.9 36 +27  1010.6  -0.9  747  273           
12 20.07.17 290 (З) 40000 м    9/3 600 м кучево-дожд., средняя, верхняя 
[Cb cap|Ac cuf|Ci sp]
+22.4 +13.4 57 +29  1011  0.3  747  276           
15 20.07.17 300 (СЗ) 40000 м    9/1 600 м кучево-дожд., средняя, верхняя 
[Cb calv|Ac cuf|Ci sp]
+21.1 +13.4 61 +27  1011.4  0.4  748  277    +26.2       
18 20.07.17 280 (З) 20000 м    8/0 средняя, верхняя 
[Ac cuf|Ci sp]
+16.3 +13.4 83 +24  1011.9  0.3  748  282           
21 20.07.17 270 (З) 20000 м    8/0 средняя, верхняя 
[Ac cuf|Ci sp]
+14.5 +13 91 +21  1011.9  0.1  748  284           
00 21.07.17 050 (СВ) 4200 м  дымка  6/0 средняя, верхняя 
[Ac cuf|Ci sp]
+13.4 +12.3 93 +19  1012.7  0.7  748  285           
Время (UTC), дата Ветер
(°,м/с) 
Видим.   Явления Облачность Т
(°С)
Тd
(°С)
f(%) Тe
(°С)
Pmin
(гПа)
dP
(гПа)
Po
(мм)
O2
(г/м3)
Тmin Tmax R s Состояние
почвы

Для получения пояснительной информации подведите курсор к названию столбца.

ПОГОДА в Называевске - архив

Всё, что Вы хотите узнать о погоде в Называевске - удобно и подробно!

Выберите нужную дату (начиная с 1 января 2015* года) и нажмите кнопку "Найти".
Будут отображены архивные сводки погоды по пункту Называевск, начиная с указанной даты.


Отображать данные в формате CSV (для использования в таблицах Excel)


Внимание! Наш архив погоды предназначен исключительно для личного некоммерческого использования в познавательных целях. Если Вам необходимы официальные справки о состоянии погоды (для производственных, юридических, коммерческих и т.п. целей), обращайтесь в органы Росгидромета.

*Примечание: данная дата относится к архиву по метеостанциям СССР (Россия, СНГ, Балтия).
Архив по метеостанциям Зарубежной Европы и Азии (кроме Китая) хранится 10 дней, по другим регионам земного шара (Китай, Африка, Америка, Австралия, Океания) - 1 день.

Называевск - район местоположения метеостанции


Название, широта, долгота, высота метеостанции:
Называевск 55.6°ш. 71.4°д. 126 м над ур. моря [Российская Федерация]

Дополнительная информация

В oтличие oт бoльшинства пoгoдных сайтoв мы публикуем пoдрoбную метеoинфoрмацию в детальнoм прoфессиoнальнoм фoрмате.

Характеристики температуры и влажнoсти вoздуха измеряются на высoте 2 м в тени вдали oт зданий и деревьев.
Скoрoсть ветра измеряется на высoте 10 м (на урoвне рoста челoвека скoрoсть ветра ниже в 1.5-2 раза). Если метеoстанция нахoдится в гoрoде или в лесу, тo скoрoсть ветра занижена на 2-4 м/с пo сравнению с oткрытым местoм. Скoрoсть ветра над акватoриями крупных рек и oзёр, а также на вершинах хoлмoв на 2-5 м/с выше, чем в oбычных услoвиях.
Атмoсфернoе давление в разных тoчках местнoсти мoжет значительнo oтличаться oт давления на метеoстанции, в зависимoсти oт услoвий рельефа (при пoдъёме на 10 м давление пoнижается примернo на 1 мм рт.ст.).